User: anonymous   Login
Location: Unspecified
(0.0000°N, 0.0000°E)
Time: 18:06:42
(UTC+00:00)
Language:

STARLINK-5809 - Orbit

View from above orbital plane
View from above orbital plane
View from above satellite
View from above satellite

Ground track
Ground track

The orbit is defined by the following mean orbital elements,

1 55775U          26145.38905462 +.00000000 +00000-0 -35324-3 0 00008
2 55775  70.0009  31.0041 0002616 264.2055  95.8806 14.98352718    09
Epoch (UTC): 25 May 2026 09:20:14
Eccentricity: 0.0002616
inclination: 70.0009°
perigee height: 570 km
apogee height: 574 km
right ascension of ascending node: 31.0041°
argument of perigee: 264.2055°
revolutions per day: 14.98352718
mean anomaly at epoch: 95.8806°

The dashed part of the orbit path shows where the satellite is in the earth's shadow,  

DLR